Miscellaneous Local Product
Issued by NWS Hastings, NE

Home | Current Version | Previous Version | Graphics & Text | Print | Product List | Glossary On
Versions: 1 2 3 4 5 6 7 8 9 10 11 12 13 14 15 16 17 18 19 20 21 22 23 24 25 26 27 28 29 30 31 32 33 34 35 36 37 38 39 40 41 42 43 44 45 46 47 48 49 50
290
AXUS43 KGID 160002
MISGRI

GID CWA HOURLY WEATHER ROUNDUP
NATIONAL WEATHER SERVICE HASTINGS NE
600 PM CST MON JAN 15 2018

NOTE: "FAIR" INDICATES FEW OR NO CLOUDS BELOW 12,000 FEET WITH NO
SIGNIFICANT WEATHER AND/OR OBSTRUCTIONS TO VISIBILITY.

...SOUTH CENTRAL NEBRASKA...

CITY           SKY/WX    TMP DP  RH WIND       PRES   REMARKS
GRAND ISLAND   CLEAR      2  -6  69 N16       30.63R WCI -18
KEARNEY        CLEAR      3  -6  66 N18       30.63R WCI -17
HASTINGS       PTCLDY     3  -7  63 N18       30.63R WCI -17
ORD            MOCLDY     2  -7  66 NW17G26   30.63R WCI -18
YORK           PTCLDY     1  -4  78 NW17G26   30.62R WCI -19
AURORA         PTCLDY     3  -6  66 NW17G31   30.62R WCI -17
LEXINGTON      CLEAR      6  -4  62 NW21      30.63R WCI -15
HOLDREGE       CLEAR      5  -3  68 NW14G21   30.62R WCI -12
HEBRON         PTCLDY     6  -4  63 NW14G25   30.66R WCI -10

...NEBRASKA PANHANDLE...

CITY           SKY/WX    TMP DP  RH WIND       PRES   REMARKS
CHADRON        CLOUDY     5  -5  63 NE7       30.67R WCI  -7
ALLIANCE       CLEAR      1  -5  75 N9        30.57S WCI -14
SCOTTSBLUFF    CLEAR      9  -2  61 N12       30.58R WCI  -6
SIDNEY         CLEAR      5  -2  72 N12       30.54R WCI -11

...WESTERN AND NORTH CENTRAL NEBRASKA...

CITY           SKY/WX    TMP DP  RH WIND       PRES   REMARKS
VALENTINE      CLEAR      1  -8  66 NW17G26   30.66R WCI -19
AINSWORTH      CLOUDY     1  -6  70 NW22G28   30.64R WCI -21
ONEILL         CLOUDY     1  -5  76 NW21      30.64R WCI -22
BROKEN BOW     PTCLDY     3  -8  60 NW12G22   30.61R WCI -13
IMPERIAL       CLEAR      7  -3  64 N20G25    30.61R WCI -13
NORTH PLATTE   CLEAR      4  -7  60 NW13      30.64R WCI -13
MCCOOK         CLEAR      7  -4  60 N15       30.64R WCI -10

...EASTERN NEBRASKA...

CITY           SKY/WX    TMP DP  RH WIND       PRES   REMARKS
NORFOLK        CLEAR     -2  -9  72 N15G31    30.62R WCI -22
SO SIOUX CITY  PTCLDY    -2 -10  69 NW22G29   30.64R WCI -26
TEKAMAH        CLEAR     -1 -10  65 NW20      30.66S WCI -23
COLUMBUS       CLEAR      0  -8  69 NW22G28   30.65S WCI -23
ALBION         CLOUDY     2  -4  73 N18G24    30.62R WCI -18
OMAHA EPPLEY   CLEAR      0 -10  63 NW21G29   30.65R WCI -22
MILLARD        CLEAR      2  -8  60 NW15G23   30.65R WCI -16
LINCOLN        PTCLDY     4  -8  57 NW17      30.67R WCI -16
NEBRASKA CITY  MOCLDY     2  -6  68 N17G24    30.63R WCI -17
BEATRICE       MOCLDY     6  -3  67 NW23G29   30.65R WCI -15
FALLS CITY     PTCLDY     4  -5  66 NW15G24   30.63R WCI -14

...NORTHERN KANSAS...

CITY           SKY/WX    TMP DP  RH WIND       PRES   REMARKS
GOODLAND       CLEAR     10  -1  61 N16       30.55R WCI  -7
HILL CITY      CLEAR      8  -2  63 N12       30.65R WCI  -7
NORTON         CLEAR      7  -6  56 NW10      30.63R WCI  -8
PHILLIPSBURG   CLEAR      9  -4  56 NW13G18   30.67S WCI  -7
SMITH CENTER     N/A      5   5 100 NW12G22   30.66R WCI -11
HAYS           CLEAR      9  -2  61 N14       30.65R WCI  -7
RUSSELL        CLEAR    N/A N/A N/A N20       30.64R
CONCORDIA      MOCLDY     7  -3  64 NW13      30.65R WCI  -9
SALINA         CLEAR     10   0  63 NW16      30.67R WCI  -7
TOPEKA         CLEAR      9  -1  64 NW16      30.65R WCI  -8



USA.gov is the U.S. government's official web portal to all federal, state and local government web resources and services.